Farmville, VA

7:59 PM EDT on October 14, 2019 (GMT -0400)
Farmville Regional

Weather History for KFVX - September, 2019

Change the Weather History Date:

Monday, September 16, 2019

  Actual Average Record
Temperature  
Mean Temperature 76 °F -  
Max Temperature 94 °F 81 °F 93 °F (1942)
Min Temperature 59 °F 57 °F 39 °F (1946)
Cooling Degree Days 11    
Growing Degree Days 26 (Base 50)    
Moisture  
Dew Point 63 °F    
Average Humidity 74    
Maximum Humidity 100    
Minimum Humidity 31    
Precipitation  
Precipitation 0.00 in - - ()
Sea Level Pressure  
Sea Level Pressure 30.03 in    
Wind  
Wind Speed 1 mph ()    
Max Wind Speed 6 mph    
Max Gust Speed -    
Visibility 7.6 miles    
Events Fog    
Averages and records for this station are not official NWS values.
T = Trace of Precipitation, MM = Missing Value Source: Averaged Metar Reports

Daily Weather History Graph

Daily Weather History Graph

Search for Another Location

Airport or City:

Astronomy

Sep. 16, 2019 Rise Set
Actual Time 6:56 AM EDT 7:20 PM EDT
Civil Twilight 6:30 AM EDT 7:46 PM EDT
Nautical Twilight 5:59 AM EDT 8:17 PM EDT
Astronomical Twilight 5:28 AM EDT 8:48 PM EDT
Moon 8:56 PM EDT (9/16) 8:59 AM EDT (9/16)
Length of Visible Light 13h 16m
Length of Day
12h 23m
Waning Gibbous, 94% of the Moon is Illuminated
Sep 16
Waning Gibbous
Sep 21
Last Quarter
Sep 28
New
Oct 5
First Quarter
Oct 13
Full

Hourly Weather History & Observations

Time (EDT) Temp. Heat Index Dew Point Humidity Pressure Visibility Wind Dir Wind Speed Gust Speed Precip Events Conditions
12:15 AM 64.2 °F - 63.9 °F 99% 30.10 in 3.0 mi Calm Calm - N/A   Clear
12:35 AM 64.2 °F - 64.0 °F 99% 30.10 in 5.0 mi Calm Calm - N/A   Clear
12:55 AM 63.5 °F - 63.3 °F 99% 30.10 in 3.0 mi Calm Calm - N/A   Clear
1:35 AM 63.3 °F - 63.1 °F 99% 30.10 in 3.0 mi Calm Calm - N/A   Clear
1:55 AM 63.3 °F - 63.1 °F 99% 30.10 in 3.0 mi Calm Calm - N/A   Clear
2:15 AM 63.5 °F - 63.5 °F 100% 30.10 in 2.0 mi Calm Calm - N/A   Clear
2:35 AM 64.0 °F - 63.9 °F 99% 30.10 in 5.0 mi Calm Calm - N/A   Clear
2:55 AM 62.6 °F - 62.4 °F 99% 30.10 in 4.0 mi Calm Calm - N/A   Clear
3:15 AM 62.6 °F - 62.4 °F 99% 30.10 in 5.0 mi Calm Calm - N/A   Clear
3:35 AM 62.2 °F - 62.2 °F 100% 30.09 in 2.5 mi Calm Calm - N/A   Clear
3:55 AM 60.4 °F - 60.3 °F 99% 30.09 in 2.5 mi Calm Calm - N/A   Scattered Clouds
4:15 AM 61.9 °F - 61.9 °F 100% 30.09 in 4.0 mi Calm Calm - N/A   Clear
4:35 AM 61.2 °F - 61.2 °F 100% 30.09 in 0.5 mi Calm Calm - N/A Fog Fog
4:55 AM 60.4 °F - 60.3 °F 99% 30.09 in 3.0 mi Calm Calm - N/A   Scattered Clouds
5:15 AM 60.6 °F - 60.6 °F 100% 30.08 in 3.0 mi Calm Calm - N/A   Scattered Clouds
5:35 AM 60.3 °F - 60.1 °F 99% 30.08 in 3.0 mi Calm Calm - N/A   Clear
5:50 AM 60.8 °F - 60.8 °F 100% 30.08 in 5.0 mi Calm Calm - N/A   Clear
6:15 AM 60.4 °F - 60.4 °F 100% 30.08 in 1.2 mi Calm Calm - N/A   Scattered Clouds
6:35 AM 60.1 °F - 60.1 °F 100% 30.09 in 1.0 mi Calm Calm - N/A   Mist
6:55 AM 60.3 °F - 60.3 °F 100% 30.09 in 2.5 mi Calm Calm - N/A   Clear
7:15 AM 59.7 °F - 59.7 °F 100% 30.09 in 3.0 mi Calm Calm - N/A   Clear
7:35 AM 61.3 °F - 61.2 °F 99% 30.09 in 4.0 mi Calm Calm - N/A   Clear
7:55 AM 62.6 °F - 61.9 °F 97% 30.09 in 7.0 mi Calm Calm - N/A   Clear
8:15 AM 64.4 °F - 64.0 °F 99% 30.09 in 7.0 mi Calm Calm - N/A   Clear
8:35 AM 65.8 °F - 64.8 °F 96% 30.09 in 10.0 mi Calm Calm - N/A   Clear
8:55 AM 68.5 °F - 65.8 °F 91% 30.09 in 10.0 mi Calm Calm - N/A   Clear
9:15 AM 71.1 °F - 66.7 °F 86% 30.09 in 10.0 mi Calm Calm - N/A   Clear
9:35 AM 73.8 °F - 67.8 °F 82% 30.09 in 10.0 mi Calm Calm - N/A   Clear
9:55 AM 75.9 °F - 68.7 °F 78% 30.09 in 10.0 mi SSW 4.6 mph - N/A   Clear
10:35 AM 79.7 °F - 70.2 °F 73% 30.09 in 10.0 mi SW 3.5 mph - N/A   Clear
10:55 AM 81.3 °F 84.5 °F 68.9 °F 66% 30.08 in 10.0 mi South 3.5 mph - N/A   Clear
11:15 AM 82.9 °F 86.7 °F 69.8 °F 64% 30.08 in 10.0 mi Calm Calm - N/A   Clear
11:35 AM 83.8 °F 87.5 °F 68.9 °F 61% 30.07 in 10.0 mi NNW 3.5 mph - N/A   Clear
11:55 AM 84.4 °F 87.9 °F 68.7 °F 59% 30.06 in 10.0 mi Calm Calm - N/A   Clear
12:15 PM 85.3 °F 87.9 °F 66.9 °F 54% 30.06 in 10.0 mi Calm Calm - N/A   Clear
12:55 PM 88.3 °F 90.9 °F 66.2 °F 48% 30.04 in 10.0 mi Calm Calm - N/A   Clear
1:15 PM 90.0 °F 91.0 °F 63.5 °F 41% 30.03 in 10.0 mi WNW 3.5 mph - N/A   Scattered Clouds
1:35 PM 88.5 °F 90.5 °F 65.3 °F 46% 30.02 in 10.0 mi Calm Calm - N/A   Clear
1:55 PM 90.3 °F 91.9 °F 64.0 °F 42% 30.01 in 10.0 mi NNE 4.6 mph - N/A   Clear
2:15 PM 89.6 °F 90.8 °F 63.5 °F 42% 30.00 in 10.0 mi NNE 4.6 mph - N/A   Clear
2:35 PM 91.6 °F 91.6 °F 60.8 °F 36% 30.00 in 10.0 mi ESE 4.6 mph - N/A   Clear
2:55 PM 89.4 °F 88.4 °F 58.1 °F 35% 29.99 in 10.0 mi Calm Calm - N/A   Clear
3:15 PM 93.0 °F 92.3 °F 59.0 °F 32% 29.98 in 10.0 mi Calm Calm - N/A   Clear
3:35 PM 93.7 °F 93.0 °F 59.0 °F 31% 29.97 in 10.0 mi Calm Calm - N/A   Clear
3:55 PM 91.2 °F 89.9 °F 57.4 °F 32% 29.96 in 10.0 mi Calm Calm - N/A   Clear
4:35 PM 92.7 °F 92.1 °F 59.5 °F 33% 29.94 in 10.0 mi North 4.6 mph - N/A   Clear
4:55 PM 92.7 °F 91.8 °F 58.6 °F 32% 29.94 in 10.0 mi ENE 3.5 mph - N/A   Clear
5:15 PM 91.0 °F 90.0 °F 58.5 °F 33% 29.94 in 10.0 mi Calm Calm - N/A   Clear
5:35 PM 91.2 °F 91.1 °F 61.0 °F 36% 29.94 in 10.0 mi South 4.6 mph - N/A   Clear
5:55 PM 90.1 °F 90.2 °F 61.3 °F 38% 29.94 in 10.0 mi SSW 4.6 mph - N/A   Clear
6:15 PM 88.0 °F 89.0 °F 63.3 °F 44% 29.94 in 10.0 mi Calm Calm - N/A   Clear
6:35 PM 87.1 °F 88.6 °F 64.4 °F 47% 29.95 in 10.0 mi SSE 5.8 mph - N/A   Clear
6:55 PM 84.7 °F 86.3 °F 64.8 °F 51% 29.95 in 10.0 mi SSE 4.6 mph - N/A   Clear
7:15 PM 81.5 °F 83.4 °F 65.3 °F 58% 29.95 in 10.0 mi Calm Calm - N/A   Clear
7:35 PM 80.2 °F 82.1 °F 65.1 °F 60% 29.95 in 10.0 mi Calm Calm - N/A   Clear
7:55 PM 79.2 °F - 65.3 °F 62% 29.95 in 10.0 mi Calm Calm - N/A   Clear
8:10 PM 77.9 °F - 65.5 °F 65% 29.95 in 10.0 mi Calm Calm - N/A   Clear
8:35 PM 76.6 °F - 65.5 °F 68% 29.96 in 10.0 mi Calm Calm - N/A   Clear
8:55 PM 75.6 °F - 65.1 °F 70% 29.96 in 10.0 mi Calm Calm - N/A   Clear
9:35 PM 72.0 °F - 65.5 °F 80% 29.97 in 10.0 mi Calm Calm - N/A   Clear
9:55 PM 71.2 °F - 65.7 °F 82% 29.97 in 10.0 mi Calm Calm - N/A   Clear
10:15 PM 70.9 °F - 65.5 °F 83% 29.97 in 10.0 mi Calm Calm - N/A   Clear
10:35 PM 70.5 °F - 66.0 °F 86% 29.98 in 10.0 mi Calm Calm - N/A   Scattered Clouds
10:55 PM 71.2 °F - 65.7 °F 82% 29.98 in 10.0 mi SW 3.5 mph - N/A   Scattered Clouds
11:35 PM 69.1 °F - 65.3 °F 88% 29.98 in 10.0 mi Calm Calm - N/A   Clear
11:50 PM 69.3 °F - 65.3 °F 87% 29.98 in 10.0 mi Calm Calm - N/A   Clear